Simultaneous Nadir Overpasses (SNOs) Predictions

Prediction of SNOs between AQUA and GOES-15 Satellite Orbit:

Table of predicted SNOs for the next 14.0 days since TLE Epoch: 6/6/2014
Index Date Time (AQUA) AQUA Lat,Lon GOES-15 Lat,Lon Distance(km) Time Diff (sec)
1 06/08/2014 10:26:22 -0.55,-132.70 -0.02,-135.33 299.03 80
2 06/08/2014 22:47:46 -0.51,-137.90 0.03,-135.33 291.63 80
3 06/10/2014 22:35:35 0.14,-134.95 0.03,-135.37 47.90 80
4 06/12/2014 22:23:24 0.76,-131.99 0.03,-135.39 386.52 80
5 06/13/2014 10:44:38 0.35,-137.14 -0.04,-135.40 198.60 80
6 06/15/2014 10:32:26 -0.28,-134.19 -0.04,-135.42 139.38 80
7 06/15/2014 22:53:51 -0.78,-139.39 0.05,-135.41 451.84 80
8 06/17/2014 10:20:14 -0.92,-131.23 -0.04,-135.43 476.98 80
9 06/17/2014 22:41:38 -0.19,-136.42 0.05,-135.42 114.31 80
10 06/19/2014 22:29:26 0.47,-133.47 0.05,-135.43 223.03 80
11 06/20/2014 10:50:41 0.63,-138.62 -0.06,-135.44 362.51 80




NCC Satellite Simultaneous Nadir Overpasses (SNOs) Prediction Service
